EST,Max TemperatureF,Mean TemperatureF,Min TemperatureF,Max Dew PointF,MeanDew PointF,Min DewpointF,Max Humidity, Mean Humidity, Min Humidity, Max Sea Level PressureIn, Mean Sea Level PressureIn, Min Sea Level PressureIn, Max VisibilityMiles, Mean VisibilityMiles, Min VisibilityMiles, Max Wind SpeedMPH, Mean Wind SpeedMPH, Max Gust SpeedMPH,PrecipitationIn, CloudCover, Events, WindDirDegrees
2013-1-1,35,27,19,23,15,1,60,54,46,29.96,29.86,29.80,10,10,10,15,8,22,0.00,4,,305
2013-1-2,26,18,10,10,4,-2,63,55,46,30.12,30.01,29.95,10,10,10,9,5,,0.00,0,,329
2013-1-3,24,15,6,10,2,-8,59,51,46,30.15,30.10,30.02,10,10,10,9,5,17,0.00,1,,299
2013-1-4,35,28,21,19,15,10,69,58,51,30.02,29.95,29.89,10,10,10,12,6,20,0.00,2,,266
2013-1-5,37,29,21,19,16,12,69,58,48,30.25,30.11,29.92,10,10,10,14,7,24,0.00,2,,295
2013-1-6,41,34,26,27,21,16,93,67,56,30.20,30.08,29.95,10,9,2,8,2,,0.00,5,,252
2013-1-7,35,30,24,25,19,12,75,62,44,30.38,30.22,30.02,10,10,10,12,4,23,0.00,2,,303
2013-1-8,44,35,26,27,23,16,75,65,49,30.39,30.35,30.32,10,10,8,12,5,21,0.00,0,,236
2013-1-9,42,33,24,34,25,18,81,72,61,30.37,30.26,30.08,10,8,4,12,2,16,0.00,1,,250
2013-1-10,42,36,30,30,21,18,65,53,42,30.54,30.38,30.16,10,10,10,17,9,30,0.00,0,,326
2013-1-11,42,33,24,37,26,18,87,74,60,30.53,30.36,30.14,10,8,0,9,3,,0.24,4,Rain,123
2013-1-12,44,42,39,41,37,34,87,84,81,30.18,30.14,30.10,3,1,0,8,4,,0.02,8,Fog,56
2013-1-13,46,42,39,45,40,36,93,87,81,30.16,30.10,30.02,2,0,0,8,2,,0.00,8,Fog,210
2013-1-14,51,42,33,48,38,23,93,79,49,30.29,30.11,29.97,10,5,0,15,6,21,0.01,7,Fog-Rain,297
2013-1-15,35,32,30,25,22,19,75,65,56,30.32,30.26,30.22,10,10,9,13,7,16,0.02,6,,5
2013-1-16,33,30,28,28,25,19,87,80,60,30.22,30.01,29.82,10,3,0,9,3,,0.03,7,Fog-Snow,57
2013-1-17,37,32,26,28,24,10,87,71,51,30.09,29.97,29.88,10,10,7,17,2,20,0.04,3,,2
2013-1-18,26,22,17,10,4,-2,54,47,34,30.44,30.25,30.03,10,10,10,17,12,26,0.00,2,,338
2013-1-19,42,32,21,28,18,7,65,56,49,30.35,30.16,29.90,10,10,10,12,7,23,0.01,4,,220
2013-1-20,48,37,26,28,21,7,70,54,31,29.97,29.82,29.64,10,10,10,13,8,30,0.00,0,,259
2013-1-21,39,28,17,18,10,1,80,58,36,30.07,29.94,29.77,10,8,2,10,5,20,0.00,4,Snow,271
2013-1-22,19,14,8,14,0,-11,80,52,32,30.10,29.92,29.76,10,9,2,14,6,28,0.00,2,Snow,294
2013-1-23,12,8,3,-8,-10,-11,56,45,34,30.15,30.11,30.08,10,10,10,12,6,18,0.00,1,,301
2013-1-24,17,8,0,-6,-9,-13,61,47,35,30.29,30.16,30.07,10,10,10,28,5,37,0.00,0,,329
2013-1-25,19,12,6,9,-2,-8,73,54,36,30.33,30.21,30.02,10,9,4,8,4,,0.00,3,Snow,307
2013-1-26,21,16,10,9,2,-4,85,59,39,30.29,30.08,29.99,10,10,8,14,5,24,0.00,2,,333
2013-1-27,28,19,10,3,0,-2,67,47,27,30.46,30.38,30.29,10,10,10,12,4,23,0.00,0,,318
2013-1-28,32,24,17,28,13,0,87,63,45,30.45,30.27,29.98,10,6,0,12,1,18,0.02,5,Fog-Rain-Snow,202
2013-1-29,35,32,28,32,29,25,87,82,80,30.16,30.08,29.97,3,2,0,6,1,,0.02,8,Fog-Rain,135
2013-1-30,55,45,35,54,45,32,94,89,81,30.11,29.79,29.42,2,0,0,21,9,41,0.00,8,Fog,179
2013-1-31,59,44,26,57,37,9,94,71,39,29.67,29.33,29.06,10,8,2,32,19,50,1.34,6,Rain,241